Weather History for Adana Incirlik AFB, Turkey

Change the Weather History Date:

Sunday, August 19, 2012

  Actual Average Record
Temperature  
Mean Temperature 85 °F -  
Max Temperature 98 °F 93 °F 104 °F (1999)
Min Temperature 72 °F 71 °F 68 °F (2003)
Cooling Degree Days 20    
Growing Degree Days 35 (Base 50)    
Moisture  
Dew Point 69 °F    
Average Humidity 63    
Maximum Humidity 94    
Minimum Humidity 18    
Precipitation  
Precipitation 0.00 in - - ()
Sea Level Pressure  
Sea Level Pressure 29.73 in    
Wind  
Wind Speed 6 mph ()    
Max Wind Speed 15 mph    
Max Gust Speed -    
Visibility 6.2 miles    
Events      
Averages and records for this station are not official NWS values.
T = Trace of Precipitation, MM = Missing Value Source: Averaged Metar Reports

Daily Weather History Graph

Daily Weather History Graph

Search for Another Location

Airport:

Trip Planner

Search our weather history database for the weather conditions in past years. The results will help you decide how hot, cold, wet, or windy it might be!

Date:

Astronomy

Aug. 19, 2012 Rise Set
Actual Time 5:58 AM EEST 7:24 PM EEST
Civil Twilight 5:31 AM EEST 7:51 PM EEST
Nautical Twilight 4:58 AM EEST 8:24 PM EEST
Astronomical Twilight 4:23 AM EEST 8:58 PM EEST
Moon 7:45 AM EEST (8/19) 8:07 PM EEST (8/19)
Length of Visible Light 14h 20m
Length of Day
13h 25m
Waxing Crescent, 4% of the Moon is Illuminated
Aug 19
Waxing Crescent
Aug 24
First Quarter
Aug 31
Full
Sep 8
Last Quarter
Sep 16
New

Hourly Weather History & Observations

Time (EEST) Temp. Heat Index Dew Point Humidity Pressure Visibility Wind Dir Wind Speed Gust Speed Precip Events Conditions
12:20 AM 77.0 °F - 71.6 °F 83% 29.74 in - NE 6.9 mph - N/A   Clear
12:50 AM 75.2 °F - 71.6 °F 89% 29.74 in - North 5.8 mph - N/A   Clear
1:20 AM 77.0 °F - 71.6 °F 83% 29.74 in - NE 5.8 mph - N/A   Clear
1:50 AM 77.0 °F - 71.6 °F 83% 29.74 in - NE 5.8 mph - N/A   Clear
2:20 AM 75.2 °F - 71.6 °F 89% 29.71 in - East 5.8 mph - N/A   Clear
2:50 AM 75.2 °F - 71.6 °F 89% 29.71 in - Variable 2.3 mph - N/A   Clear
3:00 AM 76 °F - 72 °F 84% 29.72 in 6 mi 2.3 mph - -  
3:20 AM 73.4 °F - 71.6 °F 94% 29.71 in - NE 6.9 mph - N/A   Clear
3:50 AM 73.4 °F - 71.6 °F 94% 29.71 in - NE 8.1 mph - N/A   Clear
4:20 AM 73.4 °F - 71.6 °F 94% 29.71 in - North 2.3 mph - N/A   Clear
4:50 AM 73.4 °F - 71.6 °F 94% 29.74 in - NE 2.3 mph - N/A   Clear
5:20 AM 73.4 °F - 71.6 °F 94% 29.74 in - NNW 2.3 mph - N/A   Clear
5:50 AM 73.4 °F - 71.6 °F 94% 29.74 in - NNE 3.5 mph - N/A   Clear
6:20 AM 73.4 °F - 71.6 °F 94% 29.74 in - NNE 4.6 mph - N/A   Clear
7:20 AM 78.8 °F - 73.4 °F 83% 29.74 in - NW 2.3 mph - N/A   Clear
7:50 AM 80.6 °F 84.6 °F 71.6 °F 74% 29.74 in - NNW 6.9 mph - N/A   Clear
8:20 AM 82.4 °F 88.2 °F 73.4 °F 74% 29.74 in - WNW 2.3 mph - N/A   Clear
8:50 AM 84.2 °F 90.9 °F 73.4 °F 70% 29.74 in - WSW 4.6 mph - N/A   Clear
9:00 AM 84 °F - 74 °F 65% 29.75 in 6 mi WSW 4.6 mph - -  
9:20 AM 86.0 °F 93.4 °F 73.4 °F 66% 29.77 in - West 3.5 mph - N/A   Clear
9:50 AM 87.8 °F 93.8 °F 71.6 °F 58% 29.77 in 6.2 mi SW 3.5 mph - N/A   Partly Cloudy
10:20 AM 87.8 °F 92.6 °F 69.8 °F 55% 29.77 in 6.2 mi SSW 4.6 mph - N/A   Partly Cloudy
10:50 AM 91.4 °F 96.8 °F 69.8 °F 49% 29.77 in 6.2 mi SW 8.1 mph - N/A   Partly Cloudy
11:20 AM 91.4 °F 95.4 °F 68.0 °F 46% 29.74 in 6.2 mi SSW 8.1 mph - N/A   Partly Cloudy
11:50 AM 93.2 °F 96.2 °F 66.2 °F 41% 29.74 in 6.2 mi SSW 8.1 mph - N/A   Partly Cloudy
12:20 PM 93.2 °F 94.9 °F 64.4 °F 38% 29.74 in 6.2 mi SW 6.9 mph - N/A   Partly Cloudy
12:50 PM 95.0 °F 95.2 °F 60.8 °F 32% 29.74 in 6.2 mi SSW 5.8 mph - N/A   Partly Cloudy
1:20 PM 96.8 °F 96.2 °F 59.0 °F 28% 29.74 in 6.2 mi South 5.8 mph - N/A   Partly Cloudy
1:50 PM 96.8 °F 96.2 °F 59.0 °F 28% 29.71 in 6.2 mi South 12.7 mph - N/A   Partly Cloudy
2:20 PM 98.6 °F 98.5 °F 59.0 °F 27% 29.71 in 6.2 mi South 9.2 mph - N/A   Partly Cloudy
2:50 PM 98.6 °F 98.5 °F 59.0 °F 27% 29.71 in 6.2 mi South 15.0 mph - N/A   Partly Cloudy
3:00 PM 98 °F - 58 °F 18% 29.70 in 6 mi South 15.0 mph - -   Scattered Clouds
3:20 PM 96.8 °F 105.1 °F 71.6 °F 44% 29.71 in 6.2 mi SW 15.0 mph - N/A   Partly Cloudy
3:50 PM 95.0 °F 103.2 °F 71.6 °F 47% 29.71 in 6.2 mi SW 12.7 mph - N/A   Partly Cloudy
4:20 PM 95.0 °F 101.3 °F 69.8 °F 44% 29.71 in 6.2 mi SSW 13.8 mph - N/A   Partly Cloudy
4:50 PM 93.2 °F 97.7 °F 68.0 °F 44% 29.71 in 6.2 mi SW 15.0 mph - N/A   Partly Cloudy
5:20 PM 93.2 °F 94.9 °F 64.4 °F 38% 29.71 in 6.2 mi SSW 13.8 mph - N/A   Partly Cloudy
5:50 PM 93.2 °F 93.3 °F 60.8 °F 34% 29.71 in 6.2 mi SW 15.0 mph - N/A   Partly Cloudy
6:20 PM 91.4 °F 92.1 °F 62.6 °F 38% 29.71 in 6.2 mi SW 15.0 mph - N/A   Partly Cloudy
6:50 PM 89.6 °F 92.2 °F 66.2 °F 46% 29.71 in 6.2 mi SSW 11.5 mph - N/A   Partly Cloudy
7:20 PM 87.8 °F 92.6 °F 69.8 °F 55% 29.71 in 6.2 mi SSW 8.1 mph - N/A   Partly Cloudy
7:50 PM 86.0 °F 90.4 °F 69.8 °F 58% 29.74 in 6.2 mi SW 4.6 mph - N/A   Partly Cloudy
8:20 PM 84.2 °F 89.6 °F 71.6 °F 66% 29.74 in 6.2 mi SW 6.9 mph - N/A   Partly Cloudy
8:50 PM 84.2 °F 89.6 °F 71.6 °F 66% 29.74 in 6.2 mi SSW 4.6 mph - N/A   Partly Cloudy
9:00 PM 84 °F - 72 °F 59% 29.74 in 6 mi SSW 4.6 mph - -   Scattered Clouds
9:20 PM 82.4 °F 87.2 °F 71.6 °F 70% 29.74 in 6.2 mi SE 2.3 mph - N/A   Partly Cloudy
9:50 PM 82.4 °F 87.2 °F 71.6 °F 70% 29.74 in 6.2 mi SSE 2.3 mph - N/A   Partly Cloudy
10:20 PM 80.6 °F 83.9 °F 69.8 °F 70% 29.74 in 6.2 mi SE 2.3 mph - N/A   Partly Cloudy
10:50 PM 80.6 °F 84.6 °F 71.6 °F 74% 29.77 in - ENE 2.3 mph - N/A   Clear
11:20 PM 80.6 °F 84.6 °F 71.6 °F 74% 29.74 in - NE 2.3 mph - N/A   Clear
11:50 PM 78.8 °F - 69.8 °F 74% 29.74 in - ENE 3.5 mph - N/A   Clear